CW4132 Weather Reports


time (UTC)temp
C
wind
direction
speed
KPH
gust
KPH
rain 1hr
cm
rain 24hr
cm
rain mn
cm
humidity
%
barometer
mb
20210723153025 26 195 0.0 0.0 0.00 0.00 0.00 71 1022.6
20210723151636 26 254 0.0 0.0 0.00 0.00 0.00 73 1022.9
20210723150044 26 168 0.0 0.0 0.00 0.00 0.00 78 1022.6
20210723144537 25 168 0.0 0.0 0.00 0.00 0.00 73 1022.8
20210723143010 25 209 0.0 0.0 0.00 0.00 0.00 77 1022.8
20210723141636 24 209 0.0 0.0 0.00 0.00 0.00 79 1022.9
20210723140115 23 209 0.0 0.0 0.00 0.00 0.00 85 1023.0
20210723134609 22 209 0.0 0.0 0.00 0.00 0.00 85 1023.1
20210723133216 22 223 0.0 1.6 0.00 0.00 0.00 88 1023.0
20210723131632 21 290 0.0 0.0 0.00 0.00 0.00 87 1022.9
20210723130027 21 290 0.0 0.0 0.00 0.00 0.00 87 1022.9
20210723124633 20 290 0.0 0.0 0.00 0.00 0.00 87 1022.6
20210723124517 20 290 0.0 0.0 0.00 0.00 0.00 87 1022.6
20210723123109 20 290 0.0 0.0 0.00 0.00 0.00 87 1022.5
20210723121740 20 290 0.0 0.0 0.00 0.00 0.00 87 1022.6
20210723120134 20 290 0.0 0.0 0.00 0.00 0.00 87 1022.4
20210723114619 19 290 0.0 0.0 0.00 0.00 0.00 87 1022.4
20210723113010 19 290 0.0 0.0 0.00 0.00 0.00 87 1022.3
20210723111606 18 290 0.0 0.0 0.00 0.00 0.00 87 1022.2
20210723110105 18 290 0.0 0.0 0.00 0.00 0.00 87 1022.1
20210723104558 18 290 0.0 0.0 0.00 0.00 0.00 87 1021.9
20210723103151 18 290 0.0 0.0 0.00 0.00 0.00 87 1021.7
20210723103009 18 290 0.0 0.0 0.00 0.00 0.00 87 1021.7
20210723101629 18 290 0.0 0.0 0.00 0.00 0.00 87 1021.7
20210723100219 18 290 0.0 0.0 0.00 0.00 0.00 87 1021.5
20210723100038 18 290 0.0 0.0 0.00 0.00 0.00 87 1021.5
20210723094605 18 290 0.0 0.0 0.00 0.00 0.00 87 1021.4
20210723093122 18 290 0.0 0.0 0.00 0.00 0.00 87 1021.3
20210723091757 18 290 0.0 0.0 0.00 0.00 0.00 87 1021.2
20210723090115 18 290 0.0 0.0 0.00 0.00 0.00 87 1021.3
20210723084554 18 290 0.0 0.0 0.00 0.00 0.00 87 1021.1
20210723083031 19 290 0.0 0.0 0.00 0.00 0.00 87 1021.1
20210723081625 19 290 0.0 0.0 0.00 0.00 0.00 87 1020.9
20210723080055 19 290 0.0 0.0 0.00 0.00 0.00 87 1020.8
20210723074656 19 290 0.0 0.0 0.00 0.00 0.00 87 1020.7
20210723073048 19 290 0.0 0.0 0.00 0.00 0.00 87 1020.8
20210723071503 19 290 0.0 0.0 0.00 0.00 0.00 87 1021.1
20210723070108 19 290 0.0 0.0 0.00 0.00 0.00 87 1021.2
20210723064556 20 290 0.0 0.0 0.00 0.00 0.00 87 1021.3
20210723063015 20 290 0.0 0.0 0.00 0.00 0.00 87 1021.4
20210723061631 20 290 0.0 0.0 0.00 0.00 0.00 87 1021.5
20210723060248 20 290 0.0 0.0 0.00 0.00 0.00 87 1021.6
20210723054658 20 290 0.0 0.0 0.00 0.00 0.00 87 1021.8
20210723053243 20 290 0.0 0.0 0.00 0.00 0.00 87 1021.9
20210723051604 20 290 0.0 0.0 0.00 0.00 0.00 87 1021.8
20210723050016 20 290 0.0 0.0 0.00 0.00 0.00 87 1021.9
20210723044631 20 290 0.0 0.0 0.00 0.00 0.00 87 1022.0
20210723043129 20 290 0.0 0.0 0.00 0.00 0.00 87 1022.0
20210723041550 21 290 0.0 0.0 0.00 0.00 0.00 87 1021.9
20210723040036 21 290 0.0 0.0 0.00 0.00 0.00 87 1021.9
20210723034507 21 290 0.0 0.0 0.00 0.00 0.00 87 1021.9
20210723033118 21 290 0.0 0.0 0.00 0.00 0.00 87 1022.0
20210723031646 21 290 0.0 0.0 0.00 0.00 0.00 87 1022.0
20210723030120 21 290 0.0 0.0 0.00 0.00 0.00 87 1022.2
20210723024546 21 290 0.0 0.0 0.00 0.00 0.00 87 1022.1
20210723023019 22 290 0.0 0.0 0.00 0.00 0.00 87 1022.0
20210723021734 22 290 0.0 0.0 0.00 0.00 0.00 87 1021.9
20210723020039 22 290 0.0 0.0 0.00 0.00 0.00 87 1021.7
20210723014624 22 290 0.0 0.0 0.00 0.00 0.00 87 1021.7
20210723013022 22 290 0.0 0.0 0.00 0.00 0.00 86 1021.5
20210723011805 22 290 0.0 0.0 0.00 0.00 0.00 86 1021.3
20210723010123 23 290 0.0 0.0 0.00 0.00 0.00 85 1021.2
20210723004554 23 290 0.0 0.0 0.00 0.00 0.00 85 1021.2
20210723003045 23 290 0.0 0.0 0.00 0.00 0.00 84 1021.2
20210723001755 23 290 0.0 0.0 0.00 0.00 0.00 83 1021.0
20210723000110 24 290 0.0 0.0 0.00 0.00 0.00 83 1020.8
20210722234559 25 290 0.0 0.0 0.00 0.00 0.00 82 1020.6
20210722233045 25 290 0.0 0.0 0.00 0.00 0.00 80 1020.5
20210722231501 25 146 0.0 0.0 0.00 0.00 0.00 78 1020.4
20210722230118 26 213 0.0 0.0 0.00 0.00 0.00 75 1020.4
20210722224616 27 213 0.0 0.0 0.00 0.00 0.00 74 1020.4
20210722223025 27 213 0.0 0.0 0.00 0.00 0.00 74 1020.1
20210722221505 27 213 0.0 0.0 0.00 0.00 0.00 73 1020.1
20210722220102 28 213 0.0 0.0 0.00 0.00 0.00 72 1020.0
20210722214801 28 213 0.0 0.0 0.00 0.00 0.00 70 1020.0
20210722213117 28 213 0.0 0.0 0.00 0.00 0.00 72 1019.9
20210722211605 27 213 0.0 0.0 0.00 0.00 0.00 74 1019.9
20210722210023 27 213 0.0 0.0 0.00 0.00 0.00 72 1019.9
20210722204740 28 213 0.0 0.0 0.00 0.00 0.00 69 1020.0
20210722203110 27 213 0.0 0.0 0.00 0.00 0.00 72 1020.0
20210722201550 28 213 0.0 0.0 0.00 0.00 0.00 69 1020.0
20210722200018 28 213 0.0 0.0 0.00 0.00 0.00 71 1020.1
20210722194633 28 213 0.0 0.0 0.00 0.00 0.00 71 1020.0
20210722193137 27 232 0.0 0.0 0.00 0.00 0.00 70 1020.0
20210722191622 28 290 0.0 0.0 0.00 0.00 0.00 72 1020.0
20210722190029 28 290 0.0 0.0 0.00 0.00 0.00 73 1020.3
20210722184654 28 288 0.0 0.0 0.00 0.00 0.00 71 1020.3
20210722183116 28 288 0.0 0.0 0.00 0.00 0.00 74 1020.5
20210722181549 27 288 0.0 0.0 0.00 0.00 0.00 75 1020.5
20210722180005 27 288 0.0 0.0 0.00 0.00 0.00 76 1020.7
20210722174507 27 288 0.0 0.0 0.00 0.00 0.00 75 1020.7
20210722173150 27 288 0.0 0.0 0.00 0.00 0.00 77 1020.8
20210722171755 27 288 0.0 0.0 0.00 0.00 0.00 75 1020.9
20210722170122 27 288 0.0 0.0 0.00 0.00 0.00 78 1020.9
20210722164559 27 288 0.0 0.0 0.00 0.00 0.00 75 1021.0
20210722163148 27 281 0.0 0.0 0.00 0.00 0.00 77 1021.0
20210722161526 26 281 0.0 0.0 0.00 0.00 0.00 77 1021.2
20210722160155 26 177 0.0 0.0 0.00 0.00 0.00 76 1021.2
20210722160010 26 177 0.0 0.0 0.00 0.00 0.00 76 1021.2
20210722154642 26 186 0.0 0.0 0.00 0.00 0.00 77 1021.3